Mount Holly, NJ

8:41 AM EST on December 09, 2019 (GMT -0500)
South Jersey Regional

Weather History for KVAY - October, 2019

Change the Weather History Date:

Tuesday, October 29, 2019

  Actual Average (KPNE) Record (KPNE)
Temperature  
Mean Temperature 59 °F -  
Max Temperature 64 °F 59 °F 71 °F (2014)
Min Temperature 54 °F 40 °F 32 °F (1997)
Degree Days  
Heating Degree Days 6    
Growing Degree Days 9 (Base 50)    
Moisture  
Dew Point 57 °F    
Average Humidity 93    
Maximum Humidity 97    
Minimum Humidity 81    
Precipitation  
Precipitation 0.05 in - - ()
Sea Level Pressure  
Sea Level Pressure 30.26 in    
Wind  
Wind Speed 1 mph (North)    
Max Wind Speed 6 mph    
Max Gust Speed -    
Visibility 6 miles    
Events Rain    
Averages and records for this station are not official NWS values.
T = Trace of Precipitation, MM = Missing Value Source: NWS Daily Summary

Daily Weather History Graph

Daily Weather History Graph

Search for Another Location

Airport or City:

Astronomy

Oct. 29, 2019 Rise Set
Actual Time 7:24 AM EDT 6:00 PM EDT
Civil Twilight 6:56 AM EDT 6:28 PM EDT
Nautical Twilight 6:24 AM EDT 7:00 PM EDT
Astronomical Twilight 5:53 AM EDT 7:32 PM EDT
Moon 8:55 AM EDT (10/29) 7:23 PM EDT (10/29)
Length of Visible Light 11h 32m
Length of Day
10h 36m
Waxing Crescent, 3% of the Moon is Illuminated
Oct 29
Waxing Crescent
Nov 4
First Quarter
Nov 12
Full
Nov 19
Last Quarter
Nov 26
New

Hourly Weather History & Observations

Time (EDT) Temp. Dew Point Humidity Pressure Visibility Wind Dir Wind Speed Gust Speed Precip Events Conditions
12:54 AM 55.0 °F 52.0 °F 89% 30.27 in 9.0 mi Calm Calm - N/A   Overcast
1:54 AM 54.0 °F 51.1 °F 90% 30.28 in 10.0 mi Calm Calm - N/A   Overcast
2:47 AM 55.0 °F 52.0 °F 89% 30.28 in 8.0 mi Calm Calm - N/A   Overcast
2:54 AM 55.0 °F 52.0 °F 89% 30.28 in 8.0 mi Calm Calm - N/A   Overcast
3:21 AM 54.0 °F 52.0 °F 93% 30.28 in 7.0 mi Calm Calm - N/A   Overcast
3:54 AM 54.0 °F 53.1 °F 97% 30.27 in 10.0 mi NNE 3.5 mph - N/A   Overcast
4:14 AM 54.0 °F 53.1 °F 97% 30.26 in 2.5 mi Calm Calm - N/A   Overcast
4:54 AM 54.0 °F 53.1 °F 97% 30.26 in 3.0 mi Calm Calm - N/A   Overcast
5:03 AM 54.0 °F 53.1 °F 97% 30.26 in 1.8 mi Calm Calm - 0.00 in Rain Light Rain
5:22 AM 54.0 °F 53.1 °F 97% 30.26 in 1.5 mi Calm Calm - 0.00 in   Overcast
5:54 AM 54.0 °F 53.1 °F 97% 30.27 in 1.5 mi Calm Calm - 0.01 in Rain Light Rain
6:15 AM 55.0 °F 54.0 °F 96% 30.27 in 1.8 mi Calm Calm - 0.00 in   Overcast
6:44 AM 55.0 °F 53.1 °F 93% 30.27 in 1.5 mi NNW 3.5 mph - 0.01 in   Overcast
6:54 AM 55.0 °F 54.0 °F 96% 30.27 in 1.5 mi Calm Calm - 0.01 in Rain Light Rain
7:44 AM 55.0 °F 54.0 °F 96% 30.27 in 0.8 mi Calm Calm - 0.01 in   Overcast
7:54 AM 55.0 °F 54.0 °F 96% 30.27 in 1.0 mi Calm Calm - 0.01 in   Overcast
8:05 AM 55.0 °F 54.0 °F 96% 30.27 in 0.8 mi Calm Calm - N/A   Overcast
8:54 AM 55.9 °F 55.0 °F 97% 30.29 in 0.8 mi NW 3.5 mph - N/A   Overcast
9:02 AM 55.9 °F 55.0 °F 97% 30.29 in 1.2 mi NW 3.5 mph - N/A   Overcast
9:49 AM 57.2 °F 55.4 °F 94% 30.29 in 1.0 mi Calm Calm - N/A   Overcast
9:54 AM 57.9 °F 55.9 °F 93% 30.29 in 1.2 mi Calm Calm - N/A   Overcast
10:07 AM 57.9 °F 55.9 °F 93% 30.28 in 2.5 mi Calm Calm - N/A   Overcast
10:18 AM 57.9 °F 55.9 °F 93% 30.29 in 1.2 mi NNW 3.5 mph - N/A   Overcast
10:54 AM 59.0 °F 57.0 °F 93% 30.29 in 1.8 mi NNW 3.5 mph - N/A   Overcast
11:54 AM 61.0 °F 59.0 °F 93% 30.29 in 1.8 mi NNW 4.6 mph - 0.00 in Rain Light Rain
12:08 PM 61.0 °F 59.0 °F 93% 30.29 in 2.5 mi NE 3.5 mph - 0.00 in Rain Light Rain
12:22 PM 62.1 °F 59.0 °F 90% 30.27 in 7.0 mi Variable 4.6 mph - 0.00 in   Overcast
12:32 PM 62.1 °F 57.9 °F 86% 30.26 in 10.0 mi NE 3.5 mph - 0.00 in   Overcast
12:54 PM 62.1 °F 59.0 °F 90% 30.26 in 10.0 mi ENE 4.6 mph - 0.01 in   Overcast
1:08 PM 63.0 °F 59.0 °F 87% 30.26 in 10.0 mi North 4.6 mph - N/A   Overcast
1:34 PM 64.0 °F 60.1 °F 87% 30.24 in 10.0 mi NNE 3.5 mph - N/A   Overcast
1:54 PM 63.0 °F 59.0 °F 87% 30.24 in 7.0 mi East 4.6 mph - 0.00 in Rain Light Rain
2:13 PM 63.0 °F 60.1 °F 90% 30.24 in 5.0 mi Variable 3.5 mph - 0.00 in   Overcast
2:26 PM 64.0 °F 60.1 °F 87% 30.24 in 7.0 mi Variable 3.5 mph - 0.00 in   Overcast
2:54 PM 64.9 °F 59.0 °F 81% 30.24 in 10.0 mi Calm Calm - 0.00 in   Overcast
3:41 PM 64.0 °F 60.1 °F 87% 30.24 in 10.0 mi North 4.6 mph - 0.00 in   Overcast
3:54 PM 64.0 °F 60.1 °F 87% 30.23 in 10.0 mi NW 5.8 mph - 0.00 in   Overcast
3:59 PM 63.0 °F 60.1 °F 90% 30.23 in 10.0 mi NW 4.6 mph - N/A   Overcast
4:32 PM 63.0 °F 59.0 °F 87% 30.23 in 10.0 mi NNE 3.5 mph - N/A   Overcast
4:42 PM 63.0 °F 60.1 °F 90% 30.24 in 10.0 mi North 3.5 mph - N/A   Overcast
4:54 PM 63.0 °F 60.1 °F 90% 30.24 in 10.0 mi North 4.6 mph - N/A   Overcast
5:43 PM 62.1 °F 60.1 °F 93% 30.24 in 2.5 mi Calm Calm - 0.00 in Rain Light Rain
5:54 PM 62.1 °F 60.1 °F 93% 30.25 in 2.5 mi NNE 3.5 mph - 0.00 in Rain Light Rain
6:04 PM 62.1 °F 60.1 °F 93% 30.25 in 2.5 mi Calm Calm - 0.00 in Rain Light Rain
6:12 PM 62.1 °F 60.1 °F 93% 30.25 in 7.0 mi Calm Calm - 0.01 in Rain Light Rain
6:50 PM 62.6 °F 60.8 °F 94% 30.25 in 10.0 mi NNW 3.5 mph - 0.01 in   Overcast
6:54 PM 62.1 °F 60.1 °F 93% 30.25 in 10.0 mi Calm Calm - 0.01 in   Overcast
7:12 PM 62.1 °F 60.1 °F 93% 30.25 in 10.0 mi North 3.5 mph - N/A   Overcast
7:28 PM 62.1 °F 60.1 °F 93% 30.25 in 8.0 mi North 3.5 mph - N/A   Overcast
7:54 PM 61.0 °F 60.1 °F 97% 30.25 in 4.0 mi Calm Calm - N/A   Overcast
8:16 PM 61.0 °F 60.1 °F 97% 30.25 in 7.0 mi Calm Calm - N/A   Overcast
8:54 PM 62.1 °F 60.1 °F 93% 30.26 in 10.0 mi Calm Calm - N/A   Overcast
9:20 PM 61.0 °F 59.0 °F 93% 30.26 in 5.0 mi Calm Calm - N/A   Overcast
9:40 PM 61.0 °F 59.0 °F 93% 30.27 in 4.0 mi Calm Calm - N/A   Overcast
9:54 PM 61.0 °F 59.0 °F 93% 30.26 in 10.0 mi Calm Calm - N/A   Overcast
10:19 PM 61.0 °F 59.0 °F 93% 30.26 in 10.0 mi Calm Calm - N/A   Overcast
10:30 PM 61.0 °F 59.0 °F 93% 30.26 in 10.0 mi Calm Calm - N/A   Overcast
10:44 PM 61.0 °F 59.0 °F 93% 30.26 in 9.0 mi Calm Calm - N/A   Overcast
10:54 PM 61.0 °F 59.0 °F 93% 30.26 in 8.0 mi Calm Calm - N/A   Overcast
11:12 PM 60.1 °F 59.0 °F 96% 30.26 in 1.8 mi Calm Calm - N/A   Overcast
11:29 PM 60.1 °F 59.0 °F 96% 30.26 in 3.0 mi NNE 4.6 mph - N/A   Overcast
11:54 PM 60.1 °F 59.0 °F 96% 30.26 in 4.0 mi Calm Calm - N/A   Overcast